This is the latest recevied weather packets stored in our database for station/object KG2V. If no packets are shown the sender has not sent any weather packets the latest 10 day(s).
| Time | Temp. | Humidity | Pressure | Rain* | Wind** | Luminosity | Snow |
|---|---|---|---|---|---|---|---|
| 1777580517 | 9.44° C | 63% | 1006.7 hPa | 0 mm | - | 105 W/m² | - |
| 1777580212 | 10° C | 62% | 1006.8 hPa | 0 mm | - | 127 W/m² | - |
| 1777579909 | 9.44° C | 63% | 1006.7 hPa | 0 mm | - | 169 W/m² | - |
| 1777579604 | 9.44° C | 64% | 1006.7 hPa | 0 mm | - | 140 W/m² | - |
| 1777579298 | 9.44° C | 63% | 1006.7 hPa | 0 mm | - | 71 W/m² | - |
| 1777578994 | 10° C | 62% | 1006.6 hPa | 0 mm | - | 54 W/m² | - |
| 1777578689 | 9.44° C | 63% | 1006.5 hPa | 0 mm | - | 142 W/m² | - |
| 1777578387 | 9.44° C | 66% | 1006.4 hPa | 0 mm | - | 135 W/m² | - |
| 1777578079 | 9.44° C | 63% | 1006.8 hPa | 0 mm | - | 53 W/m² | - |
| 1777577774 | 9.44° C | 64% | 1006.6 hPa | 0 mm | - | 81 W/m² | - |
| 1777577471 | 9.44° C | 63% | 1006.7 hPa | 0 mm | - | 149 W/m² | - |
| 1777577168 | 10° C | 63% | 1006.7 hPa | 0 mm | - | 157 W/m² | - |
| 1777576864 | 10° C | 63% | 1007 hPa | 0 mm | - | 85 W/m² | - |
| 1777576563 | 10° C | 60% | 1006.8 hPa | 0 mm | - | 170 W/m² | - |
| 1777576260 | 10° C | 62% | 1006.9 hPa | 0 mm | - | 298 W/m² | - |
| 1777575956 | 10° C | 62% | 1006.8 hPa | 0 mm | - | 167 W/m² | - |
| 1777575652 | 10° C | 65% | 1006.7 hPa | 0 mm | - | 134 W/m² | - |
| 1777575348 | 10° C | 63% | 1006.4 hPa | 0 mm | - | 167 W/m² | - |
| 1777575044 | 10° C | 65% | 1006.6 hPa | 0 mm | - | 271 W/m² | - |
| 1777574740 | 10° C | 66% | 1006.5 hPa | 0 mm | - | 391 W/m² | - |
| 1777574438 | 9.44° C | 68% | 1006.7 hPa | 0 mm | - | 242 W/m² | - |
| 1777574133 | 9.44° C | 66% | 1006.7 hPa | 0 mm | - | 154 W/m² | - |
| 1777573829 | 9.44° C | 65% | 1006.6 hPa | 0 mm | - | 153 W/m² | - |
| 1777573524 | 10° C | 65% | 1006.7 hPa | 0 mm | - | 78 W/m² | - |
| 1777573221 | 10° C | 67% | 1006.5 hPa | 0 mm | - | 128 W/m² | - |
* Rain latest hour (hover to see other rain measurements)
** Current wind speed in m/s (hover to see current wind gust speed)